Weather History for KPGA - October, 2013

Change the Weather History Date:

Saturday, October 12, 2013

  Actual Average Record
Temperature  
Mean Temperature 58 °F -  
Max Temperature 70 °F 71 °F 86 °F (1965)
Min Temperature 45 °F 48 °F 34 °F (1969)
Degree Days  
Heating Degree Days 8    
Growing Degree Days 8 (Base 50)    
Moisture  
Dew Point 33 °F    
Average Humidity 40    
Maximum Humidity 65    
Minimum Humidity 16    
Precipitation  
Precipitation 0.00 in - - ()
Sea Level Pressure  
Sea Level Pressure 29.94 in    
Wind  
Wind Speed 3 mph (WNW)    
Max Wind Speed 7 mph    
Max Gust Speed -    
Visibility 10 miles    
Events      
Averages and records for this station are not official NWS values.
T = Trace of Precipitation, MM = Missing Value Source: NWS Daily Summary

Daily Weather History Graph

Daily Weather History Graph

Search for Another Location

Airport or City:

Trip Planner

Search our weather history database for the weather conditions in past years. The results will help you decide how hot, cold, wet, or windy it might be!

Date:

Astronomy

Oct. 12, 2013 Rise Set
Actual Time 6:30 AM MST 5:52 PM MST
Civil Twilight 6:04 AM MST 6:18 PM MST
Nautical Twilight 5:34 AM MST 6:48 PM MST
Astronomical Twilight 5:04 AM MST 7:18 PM MST
Moon 1:56 PM MST (10/12) No Moon Set
Length of Visible Light 12h 13m
Length of Day
11h 21m
First Quarter, 60% of the Moon is Illuminated
Oct 12
First Quarter
Oct 18
Full
Oct 26
Last Quarter
Nov 3
New
Nov 9
First Quarter

Hourly Weather History & Observations

Time (MST) Temp. Dew Point Humidity Pressure Visibility Wind Dir Wind Speed Gust Speed Precip Events Conditions
12:53 AM 51.1 °F 32.0 °F 48% 29.97 in 10.0 mi SW 3.5 mph - N/A   Clear
1:53 AM 50.0 °F 30.9 °F 48% 29.97 in 10.0 mi Calm Calm - N/A   Clear
2:53 AM 48.9 °F 32.0 °F 52% 29.97 in 10.0 mi West 3.5 mph - N/A   Clear
3:53 AM 48.0 °F 32.0 °F 54% 29.97 in 10.0 mi SW 3.5 mph - N/A   Clear
4:53 AM 48.0 °F 32.0 °F 54% 29.98 in 10.0 mi West 3.5 mph - N/A   Clear
5:53 AM 45.0 °F 34.0 °F 65% 30.00 in 10.0 mi Calm Calm - N/A   Clear
6:53 AM 46.9 °F 32.0 °F 56% 30.03 in 10.0 mi Calm Calm - N/A   Clear
7:53 AM 51.1 °F 32.0 °F 48% 30.03 in 10.0 mi Calm Calm - N/A   Clear
8:53 AM 53.1 °F 33.1 °F 47% 30.04 in 10.0 mi Calm Calm - N/A   Clear
9:53 AM 55.9 °F 35.1 °F 45% 30.02 in 10.0 mi Variable 3.5 mph - N/A   Clear
10:53 AM 59.0 °F 35.1 °F 41% 30.00 in 10.0 mi NNW 4.6 mph - N/A   Clear
11:53 AM 62.1 °F 34.0 °F 35% 29.97 in 10.0 mi Variable 3.5 mph - N/A   Clear
12:53 PM 64.0 °F 35.1 °F 34% 29.94 in 10.0 mi Variable 5.8 mph - N/A   Clear
1:53 PM 66.9 °F 33.1 °F 28% 29.91 in 10.0 mi NNE 6.9 mph - N/A   Clear
2:53 PM 68.0 °F 33.1 °F 27% 29.88 in 10.0 mi NNE 4.6 mph - N/A   Clear
3:53 PM 69.1 °F 32.0 °F 25% 29.86 in 10.0 mi NNE 3.5 mph - N/A   Clear
4:53 PM 68.0 °F 32.0 °F 26% 29.86 in 10.0 mi North 5.8 mph - N/A   Clear
5:53 PM 63.0 °F 33.1 °F 33% 29.87 in 10.0 mi NE 4.6 mph - N/A   Clear
6:53 PM 60.1 °F 35.1 °F 39% 29.88 in 10.0 mi Calm Calm - N/A   Clear
7:53 PM 57.9 °F 36.0 °F 44% 29.87 in 10.0 mi Calm Calm - N/A   Clear
8:53 PM 55.9 °F 34.0 °F 44% 29.88 in 10.0 mi SW 3.5 mph - N/A   Clear
9:53 PM 54.0 °F 30.9 °F 41% 29.87 in 10.0 mi SSE 4.6 mph - N/A   Clear
10:53 PM 55.0 °F 30.0 °F 38% 29.87 in 10.0 mi SW 4.6 mph - N/A   Clear
11:53 PM 55.9 °F 28.9 °F 36% 29.86 in 10.0 mi WSW 3.5 mph - N/A   Clear